Starlink 32627

operational
NORAD ID: 62315 Int'l Des: 2024-239 Owner: SPXS Country: US Constellation: starlink
LEOCIRCULAR

Über Starlink 32627

Beschreibung wird geladen...

Live-Position

3D-Globus wird geladen...

Nächste Überflüge

Höhenverlauf

Altitude vs Time

uPlot chart will show altitude changes over time

Zweizeiliger Elementsatz

1 62315U 24239Q 25354.87835302 .00009711 00000-0 33950-3 0 9993
2 62315 53.1567 200.2216 0001574 107.1504 252.9670 15.30205112 57311
Epoch: 20. Dez. 2025 • Age: 11 hours

Aktueller Status

Höhe 480.2 km
Geschwindigkeit 7.63 km/s
Subsatellitenpunkt 50.37°N, 46.4°E
Startdatum 13. Dez. 2024
Alter 1 years
Typ internet

Technische Details

Klassifizierung Payload
Masse 730.00 kg
Trockenmasse 700.00 kg
Gesamtmasse 730.00 kg
Länge 0.30 m
Durchmesser 4.10 m
Spannweite 29.00 m
Form Box + pan
Hersteller SPXS
Bus-Typ Starlink V2M
Phasenstatus In Orbit
Besitzer/Staat SPXS/US

Große Konstellationen

Loading constellations...